Location: Passau
(48.5830°N, 13.4830°E)
Time: 20:30:47
(UTC+02:00)

Transit 2A Rocket - Visible Passes

Search period start: 27 July 2021 00:00
Search period end: 06 August 2021 00:00
Orbit: 589 x 913 km, 66.7° (Epoch: 27 July)

Date Brightness Start Highest point End Pass type
(mag) Time Alt. Az. Time Alt. Az. Time Alt. Az.
27 Jul 5.2 01:22:12 10° NW 01:27:35 63° WSW 01:28:55 49° S visible
27 Jul 7.2 03:07:40 10° W 03:08:47 11° W 03:08:47 11° W visible
27 Jul 7.0 22:57:27 10° NNW 23:01:40 23° NE 23:06:07 10° E visible
28 Jul 5.1 00:39:31 10° NW 00:44:58 85° NE 00:46:56 43° SE visible
28 Jul 6.7 02:23:12 10° WNW 02:26:48 19° WSW 02:26:48 19° WSW visible
28 Jul 7.3 22:15:03 10° NNW 22:18:35 18° NNE 22:22:19 10° ENE visible
28 Jul 5.6 23:56:56 10° NNW 00:02:15 57° NE 00:05:00 30° ESE visible
29 Jul 6.1 01:39:53 10° NW 01:44:40 30° WSW 01:44:52 30° WSW visible
29 Jul 7.4 21:32:39 10° N 21:35:25 14° NNE 21:38:18 10° NE visible
29 Jul 6.1 23:14:24 10° NNW 23:19:27 39° NE 23:23:08 19° ESE visible
30 Jul 5.5 00:56:55 10° NW 01:02:11 47° WSW 01:03:00 44° SW visible
30 Jul 6.6 22:31:56 10° NNW 22:36:32 28° NE 22:41:19 11° E visible
31 Jul 5.1 00:14:09 10° NW 00:19:37 74° WSW 00:21:11 49° SSE visible
31 Jul 7.2 01:58:41 10° WNW 02:01:04 14° W 02:01:04 14° W visible
31 Jul 7.0 21:49:29 10° NNW 21:53:31 21° NNE 21:57:47 10° E visible
31 Jul 5.2 23:31:30 10° NNW 23:36:58 74° NE 23:39:25 36° SE visible
01 Aug 6.6 01:14:53 10° WNW 01:19:09 23° WSW 01:19:18 23° WSW visible
01 Aug 5.7 22:48:56 10° NNW 22:54:12 50° NE 22:57:42 22° ESE visible
02 Aug 6.0 00:31:42 10° NW 00:36:44 36° WSW 00:37:34 34° SW visible
02 Aug 6.2 22:06:26 10° NNW 22:11:22 35° NE 22:16:01 13° ESE visible
02 Aug 5.5 23:48:50 10° NW 23:54:14 56° WSW 23:55:53 41° S visible
03 Aug 6.7 21:23:57 10° NNW 21:28:25 26° NE 21:33:09 10° E visible
03 Aug 5.1 23:06:06 10° NW 23:11:38 86° WSW 23:14:15 35° SSE visible
04 Aug 7.0 00:50:05 10° WNW 00:53:36 17° WSW 00:54:08 17° WSW visible
04 Aug 5.4 22:23:29 10° NNW 22:28:56 64° NE 22:32:39 23° SE visible
05 Aug 6.5 00:06:37 10° NW 00:11:15 27° WSW 00:12:33 25° SW visible
05 Aug 5.9 21:40:56 10° NNW 21:46:09 44° NE 21:51:06 13° ESE visible
05 Aug 6.0 23:23:34 10° NW 23:28:48 42° WSW 23:31:00 30° SSW visible
